When you browse on this site, cookies collect data to enhance your experience and personalize the content and advertising you see.
Visit our Privacy Policy to learn more. By continuing to use the site, you agree to this use of cookies and data.
  • în România
  • Lista ţărilor
  • Pe 7 zile
  • Temperatura apei
  • Hartă satelitară
  • Meteo pe hartă
  • Widget-uri
  • user-avatar
    Intrare

    Meteo pe oră la Ertil

    Astăzi, 17 Noiembrie, Sâmbătă

    Timp Temperatura Precipitaţii Vânt Presiune Umiditate
    00:00 -5°C° 0 mm 3 m/s 766 mmHg 29%
    01:00 -6°C° 0 mm 3 m/s 766 mmHg 29%
    02:00 -6°C° 0 mm 3 m/s 766 mmHg 29%
    03:00 -6°C° 0 mm 3 m/s 766 mmHg 28%
    04:00 -5°C° 0 mm 2 m/s 765 mmHg 28%
    05:00 -5°C° 0 mm 2 m/s 765 mmHg 28%
    06:00 -5°C° 0 mm 2 m/s 765 mmHg 28%
    07:00 -5°C° 0 mm 2 m/s 765 mmHg 27%
    08:00 -5°C° 0 mm 2 m/s 765 mmHg 26%
    09:00 -4°C° 0 mm 2 m/s 765 mmHg 26%
    10:00 -3°C° 0 mm 2 m/s 764 mmHg 23%
    11:00 0°C° 0 mm 1 m/s 764 mmHg 21%
    12:00 +2°C° 0 mm 1 m/s 764 mmHg 19%
    13:00 +2°C° 0 mm 1 m/s 763 mmHg 20%
    14:00 +2°C° 0 mm 1 m/s 763 mmHg 22%
    15:00 +2°C° 0 mm 1 m/s 762 mmHg 23%
    16:00 +1°C° 0 mm 1 m/s 762 mmHg 24%
    17:00 0°C° 0 mm 1 m/s 761 mmHg 25%
    18:00 -1°C° 0 mm 1 m/s 761 mmHg 25%
    19:00 -1°C° 0 mm 1 m/s 760 mmHg 25%
    20:00 -1°C° 0 mm 1 m/s 760 mmHg 25%
    21:00 -1°C° 0 mm 1 m/s 759 mmHg 24%
    22:00 -3°C° 0 mm 2 m/s 759 mmHg 25%
    23:00 -4°C° 0 mm 2 m/s 758 mmHg 25%

    Mâine, 18 Noiembrie, Duminică

    Timp Temperatura Precipitaţii Vânt Presiune Umiditate
    00:00 -4°C° 0 mm 2 m/s 758 mmHg 26%
    01:00 -5°C° 0 mm 3 m/s 757 mmHg 26%
    02:00 -5°C° 0 mm 3 m/s 756 mmHg 26%
    03:00 -5°C° 0 mm 3 m/s 756 mmHg 27%
    04:00 -5°C° 0 mm 3 m/s 755 mmHg 28%
    05:00 -6°C° 0 mm 3 m/s 754 mmHg 28%
    06:00 -6°C° 0 mm 3 m/s 754 mmHg 29%
    07:00 -5°C° 0 mm 3 m/s 753 mmHg 29%
    08:00 -5°C° 0 mm 3 m/s 753 mmHg 29%
    09:00 -5°C° 0 mm 3 m/s 753 mmHg 29%
    10:00 -4°C° 0 mm 3 m/s 753 mmHg 28%
    11:00 -2°C° 0 mm 3 m/s 753 mmHg 27%
    12:00 -2°C° 0 mm 4 m/s 752 mmHg 26%
    13:00 0°C° 0 mm 3 m/s 752 mmHg 27%
    14:00 0°C° 0 mm 3 m/s 752 mmHg 29%
    15:00 +1°C° 0 mm 2 m/s 752 mmHg 31%
    16:00 -1°C° 0 mm 2 m/s 752 mmHg 34%
    17:00 -2°C° 0 mm 2 m/s 752 mmHg 37%
    18:00 -3°C° 0 mm 2 m/s 752 mmHg 41%
    19:00 -3°C° 0 mm 2 m/s 752 mmHg 42%
    20:00 -3°C° 0 mm 2 m/s 752 mmHg 42%
    21:00 -4°C° 0 mm 2 m/s 752 mmHg 43%
    22:00 -4°C° 0 mm 2 m/s 752 mmHg 44%
    23:00 -4°C° 0 mm 2 m/s 752 mmHg 45%

    Poimâine, 19 Noiembrie, Luni

    Timp Temperatura Precipitaţii Vânt Presiune Umiditate
    00:00 -2°C° 0 mm 1 m/s 752 mmHg 45%
    01:00 -2°C° 0 mm 1 m/s 753 mmHg 46%
    02:00 -2°C° 0 mm 1 m/s 753 mmHg 47%
    03:00 -2°C° 0 mm 1 m/s 753 mmHg 47%
    04:00 -3°C° 0 mm 1 m/s 753 mmHg 48%
    05:00 -3°C° 0 mm 1 m/s 753 mmHg 48%
    06:00 -3°C° 0 mm 1 m/s 754 mmHg 49%
    07:00 -3°C° 0 mm 1 m/s 754 mmHg 49%
    08:00 -2°C° 0 mm 1 m/s 754 mmHg 48%
    09:00 -2°C° 0 mm 1 m/s 755 mmHg 48%
    10:00 -1°C° 0 mm 1 m/s 755 mmHg 44%
    11:00 0°C° 0 mm 1 m/s 756 mmHg 41%
    12:00 -1°C° 0 mm 2 m/s 756 mmHg 38%
    13:00 +1°C° 0 mm 1 m/s 756 mmHg 39%
    14:00 +2°C° 0 mm 1 m/s 756 mmHg 40%
    15:00 +2°C° 0 mm 1 m/s 756 mmHg 41%
    16:00 -1°C° 0 mm 2 m/s 756 mmHg 44%
    17:00 -2°C° 0 mm 2 m/s 757 mmHg 46%
    18:00 -3°C° 0 mm 2 m/s 757 mmHg 49%
    19:00 -3°C° 0 mm 2 m/s 757 mmHg 50%
    20:00 -3°C° 0 mm 2 m/s 757 mmHg 52%
    21:00 -3°C° 0 mm 2 m/s 757 mmHg 53%
    22:00 -3°C° 0 mm 2 m/s 757 mmHg 53%
    23:00 -3°C° 0 mm 2 m/s 758 mmHg 52%

    20 Noiembrie, Marţi

    Timp Temperatura Precipitaţii Vânt Presiune Umiditate
    00:00 -3°C° 0 mm 2 m/s 758 mmHg 52%
    01:00 -3°C° 0 mm 2 m/s 758 mmHg 51%
    02:00 -4°C° 0 mm 3 m/s 758 mmHg 50%
    03:00 -4°C° 0 mm 3 m/s 758 mmHg 49%
    04:00 -4°C° 0 mm 3 m/s 758 mmHg 48%
    05:00 -4°C° 0 mm 3 m/s 758 mmHg 48%
    06:00 -4°C° 0 mm 3 m/s 758 mmHg 47%
    07:00 -4°C° 0 mm 3 m/s 758 mmHg 45%
    08:00 -4°C° 0 mm 3 m/s 758 mmHg 43%
    09:00 -2°C° 0 mm 3 m/s 758 mmHg 42%
    10:00 -2°C° 0 mm 3 m/s 758 mmHg 48%
    11:00 -3°C° 0 mm 4 m/s 758 mmHg 54%
    12:00 -2°C° 0 mm 4 m/s 757 mmHg 60%
    13:00 -1°C° 0 mm 3 m/s 757 mmHg 62%
    14:00 -1°C° 0 mm 3 m/s 757 mmHg 64%
    15:00 -1°C° 0 mm 3 m/s 756 mmHg 66%
    16:00 -1°C° 0 mm 3 m/s 756 mmHg 66%
    17:00 -1°C° 0 mm 3 m/s 756 mmHg 65%
    18:00 -2°C° 0 mm 3 m/s 756 mmHg 64%
    19:00 -2°C° 0 mm 3 m/s 755 mmHg 65%
    20:00 -2°C° 0 mm 3 m/s 755 mmHg 66%
    21:00 -2°C° 0 mm 3 m/s 755 mmHg 67%
    22:00 -2°C° 0 mm 2 m/s 755 mmHg 72%
    23:00 -3°C° 0 mm 2 m/s 754 mmHg 76%

    21 Noiembrie, Miercuri

    Timp Temperatura Precipitaţii Vânt Presiune Umiditate
    00:00 -3°C° 0 mm 2 m/s 754 mmHg 81%
    01:00 -3°C° 0 mm 2 m/s 754 mmHg 83%
    02:00 -3°C° 0 mm 2 m/s 754 mmHg 85%
    03:00 -3°C° 0 mm 2 m/s 754 mmHg 87%
    04:00 -3°C° 0 mm 2 m/s 753 mmHg 88%
    05:00 -3°C° 0 mm 2 m/s 753 mmHg 89%
    06:00 -1°C° 0 mm 1 m/s 753 mmHg 91%
    07:00 -1°C° 0 mm 1 m/s 753 mmHg 90%
    08:00 -1°C° 0 mm 1 m/s 753 mmHg 90%
    09:00 -1°C° 0 mm 1 m/s 753 mmHg 89%
    10:00 0°C° 0 mm 1 m/s 752 mmHg 87%
    11:00 0°C° 0 mm 1 m/s 752 mmHg 85%
    12:00 +1°C° 0 mm 1 m/s 752 mmHg 82%
    13:00 -1°C° 0 mm 2 m/s 752 mmHg 82%
    14:00 -1°C° 0 mm 2 m/s 752 mmHg 82%
    15:00 -1°C° 0 mm 2 m/s 752 mmHg 82%
    16:00 -1°C° 0 mm 2 m/s 751 mmHg 85%
    17:00 -2°C° 0 mm 2 m/s 751 mmHg 88%
    18:00 -2°C° 0 mm 3 m/s 751 mmHg 90%
    19:00 -3°C° 0 mm 2 m/s 751 mmHg 90%
    20:00 -3°C° 0 mm 2 m/s 751 mmHg 90%
    21:00 -3°C° 0 mm 2 m/s 751 mmHg 90%
    22:00 -3°C° 0 mm 2 m/s 751 mmHg 89%
    23:00 -3°C° 0 mm 2 m/s 751 mmHg 88%

    22 Noiembrie, Joi

    Timp Temperatura Precipitaţii Vânt Presiune Umiditate
    00:00 -3°C° 0 mm 2 m/s 751 mmHg 87%
    01:00 -3°C° 0 mm 2 m/s 751 mmHg 87%
    02:00 -4°C° 0 mm 3 m/s 751 mmHg 86%
    03:00 -4°C° 0 mm 3 m/s 751 mmHg 86%
    04:00 -4°C° 0 mm 3 m/s 751 mmHg 85%
    05:00 -4°C° 0 mm 3 m/s 751 mmHg 85%
    06:00 -5°C° 0 mm 3 m/s 751 mmHg 84%
    07:00 -5°C° 0 mm 3 m/s 751 mmHg 84%
    08:00 -5°C° 0 mm 4 m/s 752 mmHg 83%
    09:00 -5°C° 0 mm 4 m/s 752 mmHg 82%
    10:00 -4°C° 0 mm 4 m/s 752 mmHg 78%
    11:00 -4°C° 0 mm 4 m/s 752 mmHg 74%
    12:00 -3°C° 0 mm 4 m/s 752 mmHg 70%
    13:00 -3°C° 0 mm 4 m/s 752 mmHg 69%
    14:00 -3°C° 0 mm 4 m/s 752 mmHg 69%
    15:00 -2°C° 0 mm 3 m/s 752 mmHg 68%
    16:00 -4°C° 0 mm 3 m/s 752 mmHg 72%
    17:00 -4°C° 0 mm 3 m/s 752 mmHg 75%
    18:00 -5°C° 0 mm 3 m/s 752 mmHg 79%
    19:00 -5°C° 0 mm 3 m/s 753 mmHg 79%
    20:00 -6°C° 0 mm 3 m/s 753 mmHg 80%
    21:00 -6°C° 0 mm 3 m/s 753 mmHg 80%
    22:00 -6°C° 0 mm 3 m/s 753 mmHg 80%
    23:00 -5°C° 0 mm 2 m/s 753 mmHg 80%
    Arată mai mult